Weather Roundup
Issued by NWS

Home | Current Version | Previous Version | Text Only | Print | Product List | Glossary On
Versions: 1 2 3 4 5 6 7 8 9 10 11 12 13 14 15 16 17 18 19 20 21 22 23 24 25 26 27 28 29 30 31 32 33 34 35 36 37 38 39 40 41 42 43 44 45 46 47 48 49 50
000
NZUS99 KDVN 270510
HRRRRR
HOURLY WEATHER ROUNDUP
NATIONAL WEATHER SERVICE QUAD CITIES IA IL
1100 PM CST WED FEB 26 2020

Note: "Fair" indicates few or no clouds below 12,000 feet with
no significant weather and/or obstructions to visibility.
------------------------------------------------------------------

CITY           SKY/WX    TMP DP  RH WIND       PRES   REMARKS
BURLINGTON     CLEAR     24  15  68 W3        30.22F
CEDAR RAPIDS   CLOUDY    24  16  71 NW7       30.19F WCI  16
DAVENPORT      FAIR      23  16  74 W12       30.20F WCI  12
DUBUQUE        FAIR      20  14  77 W10       30.15F WCI   9
IOWA CITY      MOCLDY    24  15  68 W5        30.22F WCI  18
MOLINE         FAIR      26  14  60 W10G26    30.19S WCI  16
------------------------------------------------------------------
The stations below are not NWS stations and are not subject to NWS
quality control.  Some stations do not report weather such as fog.
* - Stations that report TMP and DP in whole degrees Celsius, which
are then converted to Fahrenheit.
------------------------------------------------------------------

CITY           SKY/WX    TMP DP  RH WIND       PRES   REMARKS
CLINTON        FAIR      23  19  85 NW13      30.18F WCI  11
FAIRFIELD *    CLOUDY    25  19  80 W6        30.23S WCI  18
FORT MADISON *   N/A     25  16  68 W5        30.23F WCI  19
FREEPORT       CLOUDY    26  16  64 NW9       30.15S WCI  17
INDEPENDENCE   MOCLDY    21  16  81 NW6       30.17F WCI  13
KEOKUK *       CLEAR     23  16  74 W6        30.23F WCI  16
MACOMB         CLEAR     24  18  80 W8        30.24S WCI  15
MONTICELLO *   FAIR      21  16  79 NW10      30.18F WCI  10
MT PLEASANT *  PTCLDY    25  16  68 W3        30.23S
MUSCATINE *    MOCLDY    25  16  68 NW7       30.23S WCI  17
SAVANNA *      CLOUDY    27  18  69 W10       30.17S WCI  17
STERLING/R.F.  FLURRIES  28  21  75 NW12      30.16F WCI  18
VINTON         CLOUDY    26  19  77 W3        30.19F
WASHINGTON *   CLOUDY    23  19  86 W5        30.20F WCI  17
------------------------------------------------------------------




USA.gov is the U.S. government's official web portal to all federal, state and local government web resources and services.
  • National Weather Service
  • El Paso, TX Weather Forecast Office
  • 7955 Airport Rd
  • Santa Teresa, NM 88008
  • (575) 589-4088
  • Page Author: EPZ Webmaster
  • Web Master's E-mail: sr-epz.webmaster@noaa.gov
  • Page last modified: Feb 14th, 2020 19:38 UTC